N468CR KBDL-KHBG

Flight info

Callsign N468CR
Flight time N/A
Altitude VFR/105
Route
Aircraft C188/L-VGD/C

Departure

Time 2026-04-30 02:42
Airport Bradley International Airport (KBDL)

Arrival

Time N/A
Airport Hattiesburg Bobby L Chain Municipal Airport (KHBG)
Time Latitude Longitude Altitude Speed Heading
2026-04-30 02:28 41.93522 -72.68746 179 ft 0 kts 204°
2026-04-30 02:35 41.93519 -72.68749 179 ft 2 kts 230°
2026-04-30 02:35 41.93547 -72.68751 179 ft 7 kts 23°
2026-04-30 02:35 41.93591 -72.68741 180 ft 7 kts 331°
2026-04-30 02:36 41.93611 -72.68809 181 ft 7 kts 323°
2026-04-30 02:36 41.93637 -72.68800 181 ft 10 kts 39°
2026-04-30 02:36 41.93715 -72.68702 178 ft 17 kts 48°
2026-04-30 02:36 41.93826 -72.68565 178 ft 27 kts 41°
2026-04-30 02:37 41.93978 -72.68384 178 ft 30 kts 42°
2026-04-30 02:37 41.94129 -72.68198 180 ft 29 kts 42°
2026-04-30 02:37 41.94272 -72.68023 180 ft 29 kts 42°
2026-04-30 02:37 41.94418 -72.67836 177 ft 29 kts 46°
2026-04-30 02:38 41.94567 -72.67633 174 ft 31 kts 44°
2026-04-30 02:38 41.94649 -72.67529 172 ft 0 kts 42°
2026-04-30 02:38 41.94701 -72.67462 173 ft 17 kts 44°
2026-04-30 02:38 41.94807 -72.67324 175 ft 26 kts 45°
2026-04-30 02:39 41.94942 -72.67145 175 ft 19 kts 39°
2026-04-30 02:39 41.94964 -72.67137 175 ft 0 kts 345°
2026-04-30 02:40 41.94998 -72.67152 175 ft 18 kts 335°
2026-04-30 02:41 41.95007 -72.67290 174 ft 29 kts 231°
2026-04-30 02:41 41.94691 -72.67717 174 ft 93 kts 224°
2026-04-30 02:41 41.94148 -72.68453 313 ft 128 kts 225°
2026-04-30 02:41 41.93445 -72.69386 596 ft 147 kts 222°
2026-04-30 02:42 41.92704 -72.70356 1037 ft 154 kts 223°
2026-04-30 02:42 41.91951 -72.71393 1577 ft 153 kts 223°
2026-04-30 02:42 41.91235 -72.72429 2166 ft 151 kts 223°
2026-04-30 02:42 41.90502 -72.73528 2295 ft 177 kts 224°
2026-04-30 02:43 41.89629 -72.74844 2275 ft 196 kts 224°
2026-04-30 02:43 41.88692 -72.76240 2275 ft 205 kts 224°
2026-04-30 02:43 41.87736 -72.77659 2278 ft 208 kts 224°
2026-04-30 02:43 41.86758 -72.79109 2282 ft 210 kts 224°
2026-04-30 02:44 41.85772 -72.80569 2285 ft 211 kts 224°
2026-04-30 02:44 41.84782 -72.82034 2289 ft 209 kts 224°
2026-04-30 02:44 41.83840 -72.83434 2283 ft 200 kts 224°
2026-04-30 02:44 41.82925 -72.84798 2277 ft 195 kts 224°
2026-04-30 02:45 41.82023 -72.86146 2277 ft 191 kts 224°
2026-04-30 02:45 41.81133 -72.87477 2311 ft 189 kts 225°
2026-04-30 02:45 41.80275 -72.88765 2348 ft 187 kts 224°
2026-04-30 02:45 41.79400 -72.90075 2393 ft 186 kts 224°
2026-04-30 02:46 41.78551 -72.91356 2567 ft 180 kts 225°
2026-04-30 02:46 41.77734 -72.92588 2699 ft 178 kts 225°
2026-04-30 02:46 41.76902 -72.93844 2705 ft 183 kts 225°
2026-04-30 02:46 41.76041 -72.95137 2713 ft 185 kts 224°
2026-04-30 02:47 41.75221 -72.96431 2710 ft 186 kts 233°
2026-04-30 02:47 41.74810 -72.98104 2715 ft 192 kts 253°
2026-04-30 02:47 41.74558 -72.99866 2722 ft 192 kts 253°
2026-04-30 02:47 41.74291 -73.01627 2724 ft 192 kts 253°
2026-04-30 02:48 41.74013 -73.03349 2728 ft 190 kts 252°
2026-04-30 02:48 41.73736 -73.05056 2885 ft 184 kts 252°
2026-04-30 02:48 41.73277 -73.06571 3027 ft 174 kts 232°
2026-04-30 02:48 41.72582 -73.07912 3179 ft 172 kts 230°
2026-04-30 02:49 41.71913 -73.09237 3325 ft 171 kts 231°
2026-04-30 02:49 41.71265 -73.10560 3470 ft 171 kts 232°
2026-04-30 02:49 41.70621 -73.11891 3622 ft 170 kts 232°
2026-04-30 02:49 41.69989 -73.13225 3829 ft 168 kts 233°
2026-04-30 02:50 41.69379 -73.14531 4022 ft 166 kts 233°
2026-04-30 02:50 41.68763 -73.15841 4222 ft 165 kts 233°
2026-04-30 02:50 41.68144 -73.17146 4427 ft 165 kts 233°
2026-04-30 02:50 41.67533 -73.18426 4629 ft 165 kts 233°
2026-04-30 02:51 41.66912 -73.19723 4830 ft 164 kts 233°
2026-04-30 02:51 41.66289 -73.21010 4909 ft 170 kts 233°
2026-04-30 02:51 41.65630 -73.22365 4984 ft 173 kts 233°
2026-04-30 02:51 41.64980 -73.23704 5155 ft 170 kts 233°
2026-04-30 02:52 41.64351 -73.25005 5347 ft 167 kts 233°
2026-04-30 02:52 41.63722 -73.26309 5538 ft 166 kts 232°
2026-04-30 02:52 41.63307 -73.27171 5677 ft 165 kts 233°
2026-04-30 02:52 41.62686 -73.28461 5886 ft 165 kts 232°
2026-04-30 02:53 41.62066 -73.29751 6082 ft 165 kts 232°
2026-04-30 02:53 41.61453 -73.31044 6304 ft 163 kts 232°
2026-04-30 02:53 41.60867 -73.32310 6495 ft 162 kts 232°
2026-04-30 02:53 41.60277 -73.33586 6683 ft 161 kts 232°
2026-04-30 02:54 41.59687 -73.34862 6878 ft 161 kts 232°
2026-04-30 02:54 41.59099 -73.36128 7073 ft 161 kts 232°
2026-04-30 02:54 41.58513 -73.37390 7250 ft 160 kts 232°
2026-04-30 02:54 41.57929 -73.38652 7447 ft 159 kts 232°
2026-04-30 02:55 41.57352 -73.39898 7641 ft 158 kts 232°
2026-04-30 02:55 41.56769 -73.41160 7841 ft 157 kts 232°
2026-04-30 02:55 41.56201 -73.42389 8048 ft 156 kts 232°
2026-04-30 02:55 41.55632 -73.43628 8244 ft 155 kts 232°
2026-04-30 02:56 41.55073 -73.44849 8438 ft 154 kts 232°
2026-04-30 02:56 41.54520 -73.46053 8639 ft 152 kts 232°
2026-04-30 02:56 41.53963 -73.47267 8842 ft 151 kts 232°
2026-04-30 02:56 41.53419 -73.48458 9043 ft 150 kts 232°
2026-04-30 02:57 41.52871 -73.49652 9245 ft 149 kts 232°
2026-04-30 02:57 41.52341 -73.50814 9446 ft 146 kts 232°
2026-04-30 02:57 41.51824 -73.51951 9632 ft 142 kts 232°
2026-04-30 02:57 41.51298 -73.53104 9839 ft 148 kts 232°
2026-04-30 02:58 41.50748 -73.54297 10033 ft 151 kts 232°
2026-04-30 02:58 41.50193 -73.55482 10238 ft 153 kts 232°
2026-04-30 02:58 41.49609 -73.56705 10438 ft 157 kts 232°
2026-04-30 02:58 41.48986 -73.57983 10420 ft 170 kts 231°
2026-04-30 02:59 41.48327 -73.59320 10435 ft 176 kts 232°
2026-04-30 02:59 41.47646 -73.60686 10435 ft 180 kts 231°
2026-04-30 02:59 41.46945 -73.62090 10436 ft 182 kts 231°
2026-04-30 02:59 41.46245 -73.63490 10433 ft 183 kts 231°
2026-04-30 03:00 41.45538 -73.64899 10430 ft 182 kts 231°
2026-04-30 03:00 41.44828 -73.66309 10429 ft 183 kts 231°
2026-04-30 03:00 41.44126 -73.67708 10419 ft 180 kts 231°
2026-04-30 03:00 41.43443 -73.69083 10411 ft 173 kts 231°
2026-04-30 03:01 41.42790 -73.70396 10409 ft 168 kts 231°
2026-04-30 03:01 41.42153 -73.71672 10410 ft 165 kts 231°
2026-04-30 03:01 41.41515 -73.72949 10406 ft 163 kts 231°
2026-04-30 03:01 41.40894 -73.74198 10404 ft 162 kts 231°
2026-04-30 03:02 41.40265 -73.75454 10405 ft 161 kts 231°
2026-04-30 03:02 41.39648 -73.76681 10404 ft 161 kts 231°
2026-04-30 03:02 41.39035 -73.77907 10404 ft 160 kts 231°
2026-04-30 03:02 41.38415 -73.79154 10405 ft 159 kts 231°
2026-04-30 03:03 41.37796 -73.80389 10401 ft 159 kts 231°
2026-04-30 03:03 41.36581 -73.82776 10407 ft 157 kts 230°
2026-04-30 03:03 41.35972 -73.83993 10405 ft 158 kts 231°
2026-04-30 03:04 41.35353 -73.85223 10407 ft 159 kts 231°
2026-04-30 03:04 41.34742 -73.86428 10406 ft 158 kts 231°
2026-04-30 03:04 41.34123 -73.87647 10404 ft 158 kts 231°
2026-04-30 03:04 41.33515 -73.88846 10403 ft 158 kts 231°
2026-04-30 03:05 41.32891 -73.90070 10402 ft 158 kts 231°
2026-04-30 03:05 41.32273 -73.91275 10403 ft 158 kts 230°
2026-04-30 03:05 41.31651 -73.92487 10405 ft 158 kts 231°
2026-04-30 03:05 41.31034 -73.93695 10410 ft 160 kts 230°
2026-04-30 03:06 41.30399 -73.94930 10411 ft 160 kts 230°
2026-04-30 03:06 41.29764 -73.96159 10414 ft 167 kts 230°
2026-04-30 03:06 41.29089 -73.97442 10401 ft 171 kts 229°
2026-04-30 03:06 41.28415 -73.98687 10406 ft 162 kts 230°
2026-04-30 03:07 41.27774 -73.99949 10392 ft 165 kts 232°
2026-04-30 03:07 41.27133 -74.01197 10408 ft 162 kts 231°
2026-04-30 03:07 41.26486 -74.02403 10402 ft 157 kts 231°
2026-04-30 03:07 41.25866 -74.03537 10398 ft 149 kts 230°
2026-04-30 03:08 41.25264 -74.04635 10396 ft 147 kts 230°
2026-04-30 03:08 41.24638 -74.05786 10402 ft 156 kts 230°
2026-04-30 03:08 41.24018 -74.06948 10402 ft 149 kts 230°
2026-04-30 03:08 41.23420 -74.08051 10400 ft 145 kts 230°
2026-04-30 03:09 41.22836 -74.09133 10397 ft 143 kts 230°